VA3PC-13 Weather Reports


time (UTC)temp
C
wind
direction
speed
KPH
gust
KPH
rain 1hr
cm
rain 24hr
cm
rain mn
cm
humidity
%
barometer
mb
20260504014517 6 100 0.0 3.2 0.00 0.00 0.00 79 975.8
20260504013517 6 131 0.0 3.2 0.00 0.00 0.00 78 975.9
20260504012519 6 102 0.0 4.8 0.00 0.00 0.00 78 976.0
20260504011518 6 118 1.6 6.4 0.00 0.00 0.00 78 976.1
20260504010519 6 119 3.2 9.7 0.00 0.00 0.00 77 976.0
20260504005540 6 128 1.6 9.7 0.00 0.00 0.00 77 976.0
20260504004518 7 144 1.6 8.0 0.00 0.00 0.00 76 976.2
20260504003518 7 130 1.6 8.0 0.00 0.00 0.00 76 976.1
20260504002519 7 131 3.2 12.9 0.00 0.00 0.00 75 976.0
20260504001520 7 181 1.6 6.4 0.00 0.00 0.00 75 976.0
20260504000516 7 130 3.2 11.3 0.00 0.00 0.00 74 975.8
20260503235519 7 130 3.2 11.3 0.00 0.00 0.00 74 976.1
20260503234519 7 119 3.2 9.7 0.00 0.00 0.00 73 976.2
20260503233519 7 170 1.6 6.4 0.00 0.00 0.00 72 976.2
20260503232520 7 126 3.2 11.3 0.00 0.00 0.00 72 976.3
20260503231517 7 166 1.6 9.7 0.00 0.00 0.00 72 976.4
20260503230517 7 178 3.2 11.3 0.00 0.00 0.00 71 976.5
20260503225520 7 125 1.6 8.0 0.00 0.00 0.00 70 976.6
20260503224520 7 108 3.2 9.7 0.00 0.00 0.00 70 976.6
20260503223519 7 160 3.2 9.7 0.00 0.00 0.00 70 976.8
20260503222537 7 124 3.2 12.9 0.00 0.00 0.00 69 976.8
20260503221519 7 247 1.6 6.4 0.00 0.00 0.00 68 976.8
20260503220517 7 264 1.6 4.8 0.00 0.00 0.00 67 977.0
20260503215521 7 114 1.6 11.3 0.00 0.00 0.00 67 977.1
20260503214518 7 115 1.6 9.7 0.00 0.00 0.00 67 977.3
20260503213518 7 228 1.6 4.8 0.00 0.00 0.00 66 977.4
20260503212518 8 134 4.8 11.3 0.00 0.00 0.00 63 977.6
20260503211518 8 235 1.6 4.8 0.00 0.00 0.00 58 977.3
20260503210518 8 140 1.6 6.4 0.00 0.00 0.00 56 977.3
20260503205518 9 179 1.6 4.8 0.00 0.00 0.00 52 977.1
20260503204518 10 220 3.2 9.7 0.00 0.00 0.00 49 976.9
20260503203518 10 232 1.6 8.0 0.00 0.00 0.00 44 976.8
20260503202540 10 218 3.2 8.0 0.00 0.00 0.00 44 976.7
20260503201519 11 226 3.2 8.0 0.00 0.00 0.00 43 976.5
20260503200516 11 203 3.2 6.4 0.00 0.00 0.00 43 976.4
20260503195521 11 208 1.6 4.8 0.00 0.00 0.00 41 976.4
20260503194519 11 212 3.2 8.0 0.00 0.00 0.00 39 976.5
20260503193517 11 244 1.6 4.8 0.00 0.00 0.00 41 976.1
20260503192517 11 258 0.0 3.2 0.00 0.00 0.00 42 976.5
20260503191517 11 3 1.6 4.8 0.00 0.00 0.00 44 977.0
20260503190540 11 37 1.6 4.8 0.00 0.00 0.00 44 977.0
20260503185521 10 27 3.2 8.0 0.00 0.00 0.00 45 976.8
20260503184517 11 52 3.2 6.4 0.00 0.00 0.00 44 977.6
20260503183538 11 42 3.2 11.3 0.00 0.00 0.00 43 976.9
20260503182517 10 52 3.2 8.0 0.00 0.00 0.00 44 976.8
20260503181518 11 53 4.8 12.9 0.00 0.00 0.00 42 977.6
20260503180518 11 53 4.8 14.5 0.00 0.00 0.00 42 977.4
20260503175518 11 42 3.2 8.0 0.00 0.00 0.00 42 977.5
20260503174518 11 19 3.2 9.7 0.00 0.00 0.00 41 977.7
20260503173518 11 27 1.6 6.4 0.00 0.00 0.00 43 977.6
20260503172518 10 41 3.2 8.0 0.00 0.00 0.00 43 977.9
20260503171541 10 354 3.2 9.7 0.00 0.00 0.00 42 978.1
20260503170520 10 53 3.2 8.0 0.00 0.00 0.00 42 978.1
20260503150517 7 45 3.2 9.7 0.00 0.00 0.00 54 979.6
20260503130520 4 6 1.6 12.9 0.00 0.00 0.00 59 981.0
20260503110517 -1 263 0.0 1.6 0.00 0.00 0.00 83 981.4
20260503081519 0 260 0.0 3.2 0.00 0.00 0.00 79 982.1
20260503080520 0 334 0.0 3.2 0.00 0.00 0.00 78 982.2
20260503072519 0 241 1.6 6.4 0.00 0.00 0.00 76 981.9
20260503071520 0 258 0.0 6.4 0.00 0.00 0.00 76 981.9
20260503070517 0 258 1.6 6.4 0.00 0.00 0.00 75 982.1
20260503054519 1 142 0.0 4.8 0.00 0.00 0.00 75 982.4
20260503053520 1 135 0.0 3.2 0.00 0.00 0.00 75 982.6
20260503052519 1 194 0.0 4.8 0.00 0.00 0.00 74 982.7
20260503051540 1 173 0.0 3.2 0.00 0.00 0.00 74 982.8
20260503050517 1 170 0.0 1.6 0.00 0.00 0.00 74 982.8
20260503045518 1 200 0.0 3.2 0.00 0.00 0.00 73 982.9
20260503044540 1 199 0.0 1.6 0.00 0.00 0.00 72 982.9
20260503043520 1 230 0.0 1.6 0.00 0.00 0.00 71 983.0
20260503042541 2 224 0.0 3.2 0.00 0.00 0.00 71 983.0
20260503041517 2 149 0.0 3.2 0.00 0.00 0.00 69 982.9
20260503040518 2 213 0.0 1.6 0.00 0.00 0.00 68 982.8
20260503035517 2 214 0.0 1.6 0.00 0.00 0.00 68 982.7
20260503034521 2 123 0.0 1.6 0.00 0.00 0.00 68 982.8
20260503033518 2 226 0.0 1.6 0.00 0.00 0.00 67 982.9
20260503032518 2 225 0.0 3.2 0.00 0.00 0.00 67 983.1
20260503031559 2 207 0.0 1.6 0.00 0.00 0.00 67 983.1
20260503030518 2 240 0.0 1.6 0.00 0.00 0.00 66 983.1
20260503025518 2 225 0.0 1.6 0.00 0.00 0.00 65 983.1
20260503024519 2 261 0.0 1.6 0.00 0.00 0.00 65 983.3
20260503023518 2 234 0.0 1.6 0.00 0.00 0.00 64 983.4
20260503022519 2 243 0.0 1.6 0.00 0.00 0.00 65 983.5
20260503021519 2 232 0.0 1.6 0.00 0.00 0.00 64 983.5
20260503020520 2 222 0.0 1.6 0.00 0.00 0.00 63 983.6
20260503015519 3 224 0.0 3.2 0.00 0.00 0.00 63 983.6